Regional Weather Roundup
Issued by NWS

Home | Current Version | Previous Version | Graphics & Text | Print | Product List | Glossary On
Versions: 1 2 3 4 5 6 7 8 9 10 11 12 13 14 15 16 17 18 19 20 21 22 23 24 25 26 27 28 29 30 31 32 33 34 35 36 37 38 39 40 41 42 43 44 45 46 47 48 49 50
000
ASUS43 KBIS 122310
RWRND

NORTH DAKOTA REGIONAL WEATHER ROUNDUP
NATIONAL WEATHER SERVICE BISMARCK ND
500 PM CST FRI FEB 12 2016

NOTE: "FAIR" INDICATES FEW OR NO CLOUDS BELOW 12,000 FEET WITH NO
SIGNIFICANT WEATHER AND/OR OBSTRUCTIONS TO VISIBILITY.


NDZ001>003-009>011-017-130000-
NORTHWEST NORTH DAKOTA

CITY           SKY/WX    TMP DP  RH WIND       PRES   REMARKS
WILLISTON      PTCLDY    14   2  58 E9        30.47S WCI   2
MINOT          CLEAR      8  -7  50 E6        30.56F WCI  -2
MINOT AFB      PTCLDY     7  -6  55 CALM      30.55F
$$

NDZ018>021-031>035-040>046-130000-
SOUTHWEST NORTH DAKOTA

CITY           SKY/WX    TMP DP  RH WIND       PRES   REMARKS
BISMARCK       CLEAR     12  -2  53 E9        30.57F WCI   0
DICKINSON      CLOUDY    11   0  61 SE12      30.41S WCI  -3
GARRISON         N/A      8  -2  63 SE7       30.52F WCI  -3
HETTINGER ARPT CLOUDY    13   1  59 SE13      30.43S WCI  -2
$$

NDZ004>008-012>016-024-026-027-054-130000-
NORTHEAST NORTH DAKOTA

CITY           SKY/WX    TMP DP  RH WIND       PRES   REMARKS
GRAND FORKS    PTCLDY     2  -9  60 NW13      30.67F WCI -15
GRND FRKS AFB  CLEAR     -2 -12  62 NW8       30.66F WCI -16
DEVILS LAKE    CLOUDY    -6 -12  75 NW5       30.63R WCI -17
$$

NDZ022-023-025-028>030-036>039-047>053-130000-
SOUTHEAST NORTH DAKOTA

CITY           SKY/WX    TMP DP  RH WIND       PRES   REMARKS
FARGO          CLEAR      1 -10  60 N14       30.66S WCI -17
JAMESTOWN      CLOUDY     0 -10  63 N10       30.61R WCI -16
$$




USA.gov is the U.S. government's official web portal to all federal, state and local government web resources and services.